Regional Weather Roundup
Issued by NWS

Home | Current Version | Previous Version | Graphics & Text | Print | Product List | Glossary On
Versions: 1 2 3 4 5 6 7 8 9 10 11 12 13 14 15 16 17 18 19 20 21 22 23 24 25 26 27 28 29 30 31 32 33 34 35 36 37 38 39 40 41 42 43 44 45 46 47 48 49 50
000
ASUS43 KDTX 271510
RWRMI
MICHIGAN HOURLY REGIONAL WEATHER ROUNDUP
NATIONAL WEATHER SERVICE DETROIT/PONTIAC MI
1100 AM EDT WED AUG 27 2014

NOTE: "FAIR" INDICATES FEW OR NO CLOUDS BELOW 12,000 FEET WITH NO
SIGNIFICANT WEATHER AND/OR OBSTRUCTION TO VISIBILITY.

MIZ047>049-052>055-059>063-066>070-074>076-081>083-271600-
SOUTHEAST LOWER MICHIGAN

CITY           SKY/WX    TMP DP  RH WIND       PRES   REMARKS
ADRIAN         CLOUDY    71  66  84 E5        30.14S
ALMA           MOSUNNY   65  59  82 CALM      30.16S
ANN ARBOR      PTSUNNY   70  61  73 NE6       30.13S
BAD AXE        LGT RAIN  64  57  78 CALM      30.14F
CARO           CLOUDY    65  58  77 N3        30.15S
DETROIT CITY   PTSUNNY   74  58  57 NE6       30.14R
DETROIT        CLOUDY    70  61  73 N8        30.13S
FLINT          PTSUNNY   69  56  62 E5        30.15S
GROSSE ILE     PTSUNNY   72  63  73 NE9       30.12R
HILLSDALE      CLOUDY    68  66  94 CALM      30.15S
HOWELL         CLOUDY    66  61  84 NE5       30.15S

CITY           SKY/WX    TMP DP  RH WIND       PRES   REMARKS
JACKSON        CLOUDY    68  65  90 N5        30.15R
LAMBERTVILLE   PTSUNNY   73  64  73 NE3       30.13S
LANSING        PTSUNNY   68  62  81 VRB5      30.15S
LAPEER         FAIR      65  56  72 CALM      30.15S
MASON          CLOUDY    65  63  91 NE5       30.15S
MONROE         MOSUNNY   73  64  73 NE3       30.11S
MT. CLEMENS    PTSUNNY   70  57  63 N7        30.13R
PONTIAC        PTSUNNY   68  56  65 CALM      30.14S
PORT HOPE        N/A     63  54  72 VRB5      30.12F
PORT HURON     MOSUNNY   66  57  72 N5        30.14S
TRI CITIES     PTSUNNY   67  57  70 NE5       30.15F
TROY           CLOUDY    70  58  64 NE3       30.15F
SAGINAW HB     CLOUDY    66  61  82 CALM      30.14S
$$
MIZ043>046-050>051-056>058-064>065-071>073-077>080-271600-
SOUTHWEST LOWER MICHIGAN

CITY           SKY/WX    TMP DP  RH WIND       PRES   REMARKS
BATTLE CREEK   MOSUNNY   69  61  75 N7        30.16R
BENTON HARBOR  MOSUNNY   71  61  70 E5        30.15S
BIG RAPIDS     SUNNY     65  62  87 CALM      30.17S
COLDWATER      MOSUNNY   72  65  80 N3        30.15R
FREMONT        FAIR      68  55  63 CALM      30.18R
HOLLAND        MOSUNNY   70  59  68 E5        30.17S
GRAND RAPIDS   MOSUNNY   70  62  76 VRB3      30.17R
IONIA          PTSUNNY   65  62  87 E3        30.15S
KALAMAZOO      MOSUNNY   71  60  68 VRB5      30.15S
LUDINGTON      SUNNY     69  60  71 NE3       30.20R
MARSHALL       CLOUDY    67  62  85 CALM      30.14S
MOUNT PLEASANT PTSUNNY   65  55  70 CALM      30.16R
MUSKEGON       MOSUNNY   71  56  58 CALM      30.18R
SOUTH HAVEN    MOSUNNY   71  60  69 NE5       30.16S
$$
MIZ016>042-271600-
NORTHERN LOWER MICHIGAN

CITY           SKY/WX    TMP DP  RH WIND       PRES   REMARKS
ALPENA         LGT RAIN  60  53  77 W7        30.15R
BEAVER ISLAND  PTSUNNY   63  51  64 NW6       30.18R
BELLAIRE       CLOUDY    64  54  70 CALM      30.17S
CADILLAC       MOSUNNY   64  54  70 NW3       30.18S
CHARLEVOIX     MOSUNNY   64  55  73 NW9       30.21R
FRANKFORT      MOSUNNY   67  52  58 CALM      30.18S
GAYLORD        PTSUNNY   60  52  74 W6        30.18S
GRAYLING       PTSUNNY   62  54  75 CALM      30.19S
HARBOR SPRINGS PTSUNNY   63  53  71 W6        30.17S
HOUGHTON LAKE  PTSUNNY   63  50  62 NW5       30.19R
MANISTEE       SUNNY     64  54  68 CALM      30.20R
OSCODA         PTSUNNY   65  52  62 NW9       30.14S
PELLSTON       MOSUNNY   64  52  64 NW10      30.17R
ROGERS CITY    CLOUDY    61  55  82 W8        30.16R
TRAVERSE CITY  MOSUNNY   66  53  63 W6        30.17R
$$
MIZ007>008-015-271600-
EASTERN UPPER MICHIGAN

CITY           SKY/WX    TMP DP  RH WIND       PRES   REMARKS
KINROSS        MOSUNNY   61  54  77 NW16      30.14S
MACKINAC ISLAN MOSUNNY   60  53  78 W8        30.15S
NEWBERRY       CLOUDY    60  52  74 NW10G22   30.16S
S. S. MARIE    PTSUNNY   60  50  69 NW13      30.13R
MUNISING         N/A     63  50  62 N12       30.18R
$$
MIZ004>006-011>014-085-271600-
CENTRAL UPPER MICHIGAN

CITY           SKY/WX    TMP DP  RH WIND       PRES   REMARKS
MANISTIQUE     MOSUNNY   63  51  64 NW9       30.18R
ESCANABA       CLOUDY    61  52  72 NW6       30.20R
MENOMINEE      MOSUNNY   63  52  67 N5        30.19S
SAWYER-GWINN   CLOUDY    59  50  72 N6        30.19R
$$
MIZ001>003-009>011-084-271600-
WESTERN UPPER MICHIGAN

CITY           SKY/WX    TMP DP  RH WIND       PRES   REMARKS
IRON MOUNTAIN  PTSUNNY   62  51  67 N6        30.19S
HOUGHTON       MOSUNNY   62  47  57 NW9       30.18S
COPPER HARBOR    N/A     58  49  72 N8        30.17S
$$

ABBREVIATIONS USED IN REMARKS
   TC - TEMPERATURE IN CELSIUS
  WCI - WIND CHILL INDEX
   HX - HEAT INDEX
  VSB - VISIBILITY




USA.gov is the U.S. government's official web portal to all federal, state and local government web resources and services.